Погода в Больших Харлуши

Россия / Челябинская область     55°13′12″N   60°58′57″E
темп.,
°C
ветер,
м/с
пор.,
м/с
влажн.,
%
обл.,
%
осадки,
мм/ч
давл.,
гПа
погр.,
м
15 апреля, чт
чт1523:00+11юз356823 0.0 102866
02:00+9юз347217 0.0 102741
05:00+8зюз22785 0.0 102715
08:00+11зсз22815 0.0 102679
11:00+16зюз23575 0.0 1025450
14:00+19зюз45335 0.0 10231166
17:00+20зюз353258 0.0 10211455
20:00+14з225675 0.0 102117
16 апреля, пт
пт1623:00+12сз12622 0.0 102111
02:00+10зсз22680 0.0 102015
05:00+8зсз22702 0.0 102013
08:00+9с487457 0.0 1021284
11:00+8св7883100 0.0 1023602
14:00+8св6779100 0.0 1024733
17:00+7св5681100 0.0 1025745
20:00+6всв4685100 0.0 1025439
17 апреля, сб
сб1723:00+5всв2489100 0.0 1025214
02:00+5св2388100 0.0 102489
05:00+4св2386100 0.0 102488
08:00+4св2386100 0.1 1024236
11:00+5ссв237182 0.1 1024547
14:00+9ссз01525 0.0 10231092
17:00+10з124718 0.0 10221507
20:00+6юз46735 0.0 1021147
18 апреля, вс
вс1823:00+4з36880 0.0 1020134
02:00+3сз497317 0.0 1019182
05:00+2зсз4107630 0.0 1019247
08:00+4сз612684 0.0 1018791
11:00+3с8988100 0.3 1019764
14:00+4с91038100 0.6 10212006
17:00+3ссв9103694 0.6 10232212
20:000ссв711435 0.0 1027863
19 апреля, пн
пн1923:00−2ссв59430 0.0 1029875
02:00−3св57443 0.0 10301143
05:00−4ссв48445 0.0 10331650
08:00−4ссв683888 0.0 10341685
11:00−2ссв6832100 0.0 10352035
14:000ссв782969 0.0 10342189
17:000ссв67305 0.0 10351958
20:00−2св34425 0.0 103664